Regional Weather Roundup
Issued by NWS

Home | Current Version | Previous Version | Text Only | Print | Product List | Glossary On
Versions: 1 2 3 4 5 6 7 8 9 10 11 12 13 14 15 16 17 18 19 20 21 22 23 24 25 26 27 28 29 30 31 32 33 34 35 36 37 38 39 40 41 42 43 44 45 46 47 48 49 50
000
ASUS43 KLOT 211610
RWRIL

ILLINOIS REGIONAL WEATHER ROUNDUP
NATIONAL WEATHER SERVICE CHICAGO/ROMEOVILLE IL
1000 AM CST FRI NOV 21 2014

NOTE: "FAIR" INDICATES FEW OR NO CLOUDS BELOW 12,000 FEET WITH NO
SIGNIFICANT WEATHER AND/OR OBSTRUCTIONS TO VISIBILITY.

* THESE STATIONS ARE NOT UNDER NWS QUALITY CONTROL. THEY ALSO MAY NOT
  REPORT WEATHER SUCH AS PRECIPITATION OR FOG.

ILZ001-002-007-009-015-016-024-211700-
NORTHWEST ILLINOIS

CITY           SKY/WX    TMP DP  RH WIND       PRES   REMARKS
MOLINE         SUNNY     22   9  57 SE10      30.41S WCI  11
STERLING*      SUNNY     25   9  50 S7        30.43R WCI  17
SAVANNA*       SUNNY     23   8  53 S12       30.41S WCI  11
$$

ILZ003-004-008-010-011-017-018-211700-
NORTH CENTRAL ILLINOIS

CITY           SKY/WX    TMP DP  RH WIND       PRES   REMARKS
ROCKFORD       SUNNY     23   7  50 SE9       30.43F WCI  13
FREEPORT*      SUNNY     20   7  57 SE13      30.41F WCI   7
ROCHELLE*      SUNNY     21   6  51 SE10      30.43F WCI  10
DE KALB*         N/A    N/A N/A N/A MISG        N/A
PERU*          SUNNY     23   7  49 S12       30.46R WCI  12
$$

ILZ005-006-012>014-019>023-211700-
NORTHEAST ILLINOIS

CITY           SKY/WX    TMP DP  RH WIND       PRES   REMARKS
CHICAGO-OHARE  SUNNY     22   2  42 SE8       30.45S WCI  12
CHICAGO-MIDWAY SUNNY     25   3  38 S6        30.47S WCI  18
AURORA         SUNNY     23   4  44 SE9       30.46R WCI  13
LANSING*       SUNNY     25  13  59 S8        30.48R WCI  16
JOLIET*        SUNNY     23   5  46 SE9       30.48R WCI  13
WAUKEGAN       SUNNY     22   3  44 S7        30.44S WCI  13
DUPAGE AIRPORT SUNNY     22   4  46 SE9       30.44S WCI  12
KANKAKEE*      SUNNY     25  10  52 SE9       30.48S WCI  15
WHEELING       SUNNY     22   4  46 S7        30.47S WCI  13
MORRIS*        SUNNY     23   7  51 SE9       30.46S WCI  13
ROMEOVILLE*    SUNNY     23   4  45 S7        30.47R WCI  14
NORTHERLY ISL    N/A     25   4  40 S6          N/A  WCI  18
$$

LMZ740>746-211700-
SOUTHERN LAKE MICHIGAN

STATION/POSITION SKY/WX   TEMP    WIND        PRES    VSBY  WAVE
                          AIR SEA DIR/SP/G                  HT/PER
                          (F)     (DEG/KT/KT) (MB)    (MI)  (FT/S)
SOUTHERN BUOY              26 43  220/  6/ 10 1032.2R         3/ 6
WAUKEGAN HARBOR            20     180/  8/  9   N/A
HARRISON CRIB              22     180/  9/ 10   N/A
BURNHAM HARBOR             24     180/  7/  8   N/A
CALUMET HARBOR             23     200/  8/  9 1030.6R
MICHIGAN CITY              24     180/  4/  6   N/A
$$

ILZ025>027-034>036-040-047-049-050-058-095>099-211700-
WEST-CENTRAL ILLINOIS

CITY           SKY/WX    TMP DP  RH WIND       PRES   REMARKS
QUINCY         SUNNY     28  12  51 SE13      30.39S WCI  17
GALESBURG*     SUNNY     24  11  58 SE9       30.41F WCI  14
MACOMB*        MOSUNNY   25  11  54 SE15      30.44S WCI  13
JACKSONVILLE*  SUNNY     30  12  46 SE14      30.44R WCI  19
PITTSFIELD*    SUNNY     29  16  57 SE13      30.42S WCI  19
$$

ILZ028>032-037-038-041>044-048-051>054-059>061-211700-
CENTRAL ILLINOIS

CITY           SKY/WX    TMP DP  RH WIND       PRES   REMARKS
PONTIAC        SUNNY     25   9  49 SE12      30.47R WCI  14
BLOOMINGTON    SUNNY     25   9  50 S15       30.46R WCI  13
DECATUR        SUNNY     26  10  50 SE13      30.47S WCI  15
PEORIA         SUNNY     25   7  46 SE10      30.46R WCI  15
LACON*         SUNNY     24   6  46 SE9       30.45S WCI  14
LINCOLN*       SUNNY     26  11  52 SE10G16   30.48F WCI  16
SPRINGFIELD    SUNNY     27  11  51 SE15      30.45S WCI  15
TAYLORVILLE    SUNNY     27  12  54 SE13      30.46S WCI  16
$$

ILZ033-039-045-046-055>057-062-063-211700-
EAST-CENTRAL ILLINOIS

CITY           SKY/WX    TMP DP  RH WIND       PRES   REMARKS
CHAMPAIGN      SUNNY     24  10  55 SE13      30.48R WCI  12
DANVILLE*      SUNNY     24  12  60 SE8       30.45F WCI  15
RANTOUL*       SUNNY     26   8  47 SE10      30.48R WCI  16
MATTOON        SUNNY     26  11  52 SE12      30.47R WCI  16
PARIS*         SUNNY     26  12  56 SE7       30.50S WCI  18
$$

ILZ079-100>102-211700-
SOUTHWEST ILLINOIS

CITY           SKY/WX    TMP DP  RH WIND       PRES   REMARKS
ALTON          SUNNY     30  16  55 SE14      30.44F WCI  20
BELLEVILLE     SUNNY     31  19  58 E10       30.45S WCI  23
CAHOKIA*       SUNNY     34  18  52 SE9       30.45S WCI  27
SPARTA*        SUNNY     33  18  53 SE10G18   30.46R WCI  24
$$

ILZ064>066-069>071-074>076-080>082-084>086-088>090-092>094-211700-
SOUTH-CENTRAL ILLINOIS

CITY           SKY/WX    TMP DP  RH WIND       PRES   REMARKS
CARBONDALE     SUNNY     35  20  54 SE10      30.46R WCI  27
CAIRO*         PTSUNNY   40  24  52 E16       30.43S
EFFINGHAM*     SUNNY     29  10  44 SE10      30.48S WCI  20
MARION         SUNNY     36  21  55 SE15      30.46S WCI  26
MT. VERNON     SUNNY     32  18  55 E10G17    30.48R WCI  24
CENTRALIA*     MOSUNNY   32  17  53 SE8       30.46S WCI  25
SALEM*           N/A     32  16  50 E7        30.47S WCI  26
METROPOLIS*    SUNNY     37  24  60 E8        30.44S WCI  30
$$

ILZ067-068-072-073-078-083-087-091-211700-
SOUTHEAST ILLINOIS

CITY           SKY/WX    TMP DP  RH WIND       PRES   REMARKS
LAWRENCEVILLE  MIX PCPN  30  14  51 E10       30.51S WCI  21
FLORA*         SUNNY     30  18  60 SE12      30.49S WCI  21
FAIRFIELD*     SUNNY     32  16  52 E9        30.48F WCI  24
HARRISBURG*    SUNNY     34  22  62 SE14      30.48S WCI  24
ROBINSON*      SUNNY     29  12  49 SE8       30.52S WCI  21
CARMI*         SUNNY     36  21  55 SE12      30.48F WCI  27
$$

ABBREVIATIONS USED IN REMARKS
   TC - TEMPERATURE IN CELSIUS
  WCI - WIND CHILL INDEX
   HX - HEAT INDEX
  VSB - VISIBILITY
$$



USA.gov is the U.S. government's official web portal to all federal, state and local government web resources and services.